Madison, MN

6:39 PM CST on December 12, 2019 (GMT -0600)
Madison-Lac Qui Parle County

Weather History for KDXX - August, 2019

Change the Weather History Date:

Monday, August 26, 2019

  Actual Average (WUND) Record (WUND)
Temperature  
Mean Temperature 69 °F -  
Max Temperature 78 °F - - (-1)
Min Temperature 59 °F - - (-1)
Cooling Degree Days 4    
Growing Degree Days 19 (Base 50)    
Moisture  
Dew Point 63 °F    
Average Humidity 80    
Maximum Humidity 100    
Minimum Humidity 50    
Precipitation  
Precipitation 0.09 in - - ()
Sea Level Pressure  
Sea Level Pressure 29.76 in    
Wind  
Wind Speed 7 mph (SW)    
Max Wind Speed 20 mph    
Max Gust Speed 26 mph    
Visibility 10 miles    
Events Rain    
Averages and records for this station are not official NWS values.
T = Trace of Precipitation, MM = Missing Value Source: NWS Daily Summary

Daily Weather History Graph

Daily Weather History Graph

Search for Another Location

Airport or City:

Astronomy

Aug. 26, 2019 Rise Set
Actual Time 6:39 AM CDT 8:12 PM CDT
Civil Twilight 6:08 AM CDT 8:43 PM CDT
Nautical Twilight 5:31 AM CDT 9:20 PM CDT
Astronomical Twilight 4:50 AM CDT 10:00 PM CDT
Moon 1:55 AM CDT (8/26) 5:47 PM CDT (8/26)
Length of Visible Light 14h 35m
Length of Day
13h 33m
Waning Crescent, 19% of the Moon is Illuminated
Aug 26
Waning Crescent
Aug 30
New
Sep 5
First Quarter
Sep 13
Full
Sep 21
Last Quarter

Hourly Weather History & Observations

Time (CDT) Temp. Dew Point Humidity Pressure Visibility Wind Dir Wind Speed Gust Speed Precip Events Conditions
12:15 AM 68.0 °F 62.6 °F 83% 29.80 in 10.0 mi SE 6.9 mph - N/A   Overcast
12:19 AM 68.0 °F 62.6 °F 83% 29.80 in 10.0 mi SE 5.8 mph - N/A   Overcast
12:38 AM 68.0 °F 64.4 °F 88% 29.80 in 10.0 mi SE 8.1 mph - N/A   Overcast
12:55 AM 68.0 °F 62.6 °F 83% 29.80 in 10.0 mi SSE 6.9 mph - N/A   Overcast
1:15 AM 68.0 °F 64.4 °F 88% 29.80 in 10.0 mi SSE 5.8 mph - N/A   Overcast
1:16 AM 68.0 °F 64.4 °F 88% 29.80 in 10.0 mi SSE 5.8 mph - N/A   Overcast
1:35 AM 68.0 °F 64.4 °F 88% 29.78 in 10.0 mi SE 5.8 mph - N/A   Overcast
2:17 AM 68.0 °F 64.4 °F 88% 29.77 in 10.0 mi South 6.9 mph - N/A   Mostly Cloudy
2:36 AM 68.0 °F 66.2 °F 94% 29.78 in 10.0 mi SSE 8.1 mph - N/A   Overcast
2:55 AM 68.0 °F 66.2 °F 94% 29.77 in 10.0 mi SSE 6.9 mph - N/A   Overcast
2:56 AM 68.0 °F 66.2 °F 94% 29.77 in 10.0 mi SSE 6.9 mph - N/A   Overcast
3:15 AM 68.0 °F 66.2 °F 94% 29.79 in 10.0 mi South 4.6 mph - N/A   Overcast
3:20 AM 68.0 °F 66.2 °F 94% 29.79 in 10.0 mi South 3.5 mph - N/A   Overcast
3:37 AM 68.0 °F 66.2 °F 94% 29.79 in 10.0 mi South 3.5 mph - N/A   Overcast
3:55 AM 68.0 °F 66.2 °F 94% 29.78 in 10.0 mi SSE 3.5 mph - N/A   Overcast
4:15 AM 68.0 °F 66.2 °F 94% 29.77 in 10.0 mi SSE 3.5 mph - N/A   Light Drizzle
4:16 AM 68.0 °F 66.2 °F 94% 29.77 in 10.0 mi SSE 3.5 mph - N/A   Light Drizzle
4:35 AM 68.0 °F 66.2 °F 94% 29.76 in 5.0 mi South 4.6 mph - N/A Rain Heavy Rain
4:36 AM 68.0 °F 66.2 °F 94% 29.76 in 5.0 mi South 5.8 mph - 0.01 in Rain Heavy Rain
5:17 AM 66.2 °F 66.2 °F 100% 29.75 in 10.0 mi South 5.8 mph - 0.02 in Rain Light Rain
5:36 AM 66.2 °F 66.2 °F 100% 29.77 in 10.0 mi SSW 5.8 mph - 0.01 in Rain Light Rain
5:55 AM 66.2 °F 66.2 °F 100% 29.76 in 10.0 mi South 6.9 mph - N/A Rain Light Rain
5:56 AM 66.2 °F 66.2 °F 100% 29.76 in 10.0 mi South 6.9 mph - N/A Rain Light Rain
6:15 AM 66.2 °F 66.2 °F 100% 29.75 in 10.0 mi SSE 8.1 mph - N/A Rain Light Rain
6:56 AM 66.2 °F 66.2 °F 100% 29.75 in 10.0 mi South 5.8 mph - N/A   Light Drizzle
7:15 AM 66.2 °F 64.4 °F 94% 29.75 in 7.0 mi Calm Calm - N/A Rain Rain
7:16 AM 66.2 °F 64.4 °F 94% 29.75 in 7.0 mi South 3.5 mph - N/A Rain Rain
7:35 AM 66.2 °F 64.4 °F 94% 29.74 in 10.0 mi South 3.5 mph - N/A Rain Light Rain
7:36 AM 66.2 °F 64.4 °F 94% 29.74 in 10.0 mi South 4.6 mph - 0.01 in Rain Light Rain
7:59 AM 66.2 °F 64.4 °F 94% 29.75 in 10.0 mi South 3.5 mph - N/A Rain Light Rain
8:16 AM 66.2 °F 66.2 °F 100% 29.75 in 10.0 mi South 4.6 mph - 0.01 in Rain Light Rain
8:35 AM 66.2 °F 66.2 °F 100% 29.74 in 10.0 mi South 4.6 mph - N/A Rain Light Rain
8:36 AM 66.2 °F 66.2 °F 100% 29.74 in 7.0 mi South 4.6 mph - 0.02 in Rain Light Rain
8:55 AM 66.2 °F 66.2 °F 100% 29.74 in 10.0 mi South 6.9 mph - N/A Rain Light Rain
8:56 AM 66.2 °F 66.2 °F 100% 29.74 in 10.0 mi South 6.9 mph - N/A Rain Light Rain
9:15 AM 66.2 °F 66.2 °F 100% 29.74 in 10.0 mi SSW 3.5 mph - N/A Rain Light Rain
9:19 AM 66.2 °F 66.2 °F 100% 29.74 in 10.0 mi SSW 3.5 mph - N/A Rain Light Rain
9:38 AM 68.0 °F 66.2 °F 94% 29.74 in 10.0 mi Calm Calm - 0.02 in Rain Rain
9:55 AM 68.0 °F 66.2 °F 94% 29.74 in 10.0 mi Calm Calm - N/A Rain Light Rain
10:15 AM 68.0 °F 66.2 °F 94% 29.75 in 10.0 mi Calm Calm - N/A Rain Light Rain
10:16 AM 68.0 °F 66.2 °F 94% 29.75 in 10.0 mi Calm Calm - 0.01 in Rain Light Rain
10:35 AM 69.8 °F 68.0 °F 94% 29.77 in 10.0 mi West 3.5 mph - N/A Rain Rain
10:58 AM 68.0 °F 66.2 °F 94% 29.77 in 7.0 mi SW 3.5 mph - N/A Rain Light Rain
11:17 AM 69.8 °F 66.2 °F 88% 29.77 in 10.0 mi SSW 4.6 mph - N/A Rain Light Rain
11:36 AM 69.8 °F 66.2 °F 88% 29.76 in 10.0 mi SSW 6.9 mph - N/A   Scattered Clouds
11:55 AM 69.8 °F 66.2 °F 88% 29.76 in 10.0 mi SW 6.9 mph - N/A   Clear
11:56 AM 69.8 °F 66.2 °F 88% 29.76 in 10.0 mi SW 6.9 mph - N/A   Clear
12:15 PM 71.6 °F 66.2 °F 83% 29.75 in 10.0 mi WSW 8.1 mph - N/A   Mostly Cloudy
12:37 PM 75.2 °F 66.2 °F 73% 29.74 in 10.0 mi SSW 9.2 mph - N/A   Scattered Clouds
1:15 PM 75.2 °F 66.2 °F 73% 29.74 in 10.0 mi West 3.5 mph - N/A   Scattered Clouds
1:35 PM 77.0 °F 66.2 °F 69% 29.73 in 10.0 mi NW 9.2 mph - N/A   Mostly Cloudy
1:36 PM 77.0 °F 66.2 °F 69% 29.73 in 10.0 mi NW 8.1 mph - N/A   Mostly Cloudy
1:59 PM 78.8 °F 62.6 °F 57% 29.74 in 10.0 mi NW 13.8 mph 20.7 mph N/A   Scattered Clouds
2:36 PM 78.8 °F 62.6 °F 57% 29.73 in 10.0 mi WNW 15.0 mph - N/A   Scattered Clouds
2:55 PM 78.8 °F 62.6 °F 57% 29.73 in 10.0 mi WNW 16.1 mph 23.0 mph N/A   Scattered Clouds
3:15 PM 78.8 °F 60.8 °F 54% 29.73 in 10.0 mi WNW 19.6 mph 26.5 mph N/A   Scattered Clouds
3:19 PM 78.8 °F 59.0 °F 51% 29.73 in 10.0 mi WNW 19.6 mph 26.5 mph N/A   Scattered Clouds
3:37 PM 78.8 °F 60.8 °F 54% 29.73 in 10.0 mi WNW 17.3 mph 24.2 mph N/A   Clear
3:56 PM 78.8 °F 59.0 °F 51% 29.73 in 10.0 mi NW 13.8 mph 25.3 mph N/A   Clear
4:15 PM 78.8 °F 60.8 °F 54% 29.72 in 10.0 mi NW 15.0 mph 20.7 mph N/A   Clear
4:16 PM 78.8 °F 59.0 °F 51% 29.72 in 10.0 mi NW 17.3 mph 20.7 mph N/A   Clear
4:35 PM 78.8 °F 59.0 °F 51% 29.72 in 10.0 mi WNW 13.8 mph - N/A   Clear
4:59 PM 78.8 °F 60.8 °F 54% 29.72 in 10.0 mi WNW 13.8 mph 21.9 mph N/A   Scattered Clouds
5:16 PM 78.8 °F 60.8 °F 54% 29.72 in 10.0 mi WNW 12.7 mph 20.7 mph N/A   Scattered Clouds
5:36 PM 78.8 °F 60.8 °F 54% 29.72 in 10.0 mi NW 12.7 mph - N/A   Scattered Clouds
5:55 PM 77.0 °F 57.2 °F 50% 29.72 in 10.0 mi WNW 12.7 mph 19.6 mph N/A   Clear
5:56 PM 77.0 °F 57.2 °F 50% 29.72 in 10.0 mi WNW 13.8 mph 19.6 mph N/A   Clear
6:15 PM 77.0 °F 59.0 °F 54% 29.73 in 10.0 mi WNW 11.5 mph - N/A   Scattered Clouds
6:19 PM 75.2 °F 59.0 °F 57% 29.73 in 10.0 mi WNW 12.7 mph 17.3 mph N/A   Clear
6:38 PM 75.2 °F 57.2 °F 53% 29.73 in 10.0 mi WNW 10.4 mph 17.3 mph N/A   Clear
6:55 PM 75.2 °F 57.2 °F 53% 29.74 in 10.0 mi WNW 9.2 mph - N/A   Clear
7:15 PM 71.6 °F 59.0 °F 64% 29.75 in 10.0 mi WNW 5.8 mph - N/A   Clear
7:16 PM 71.6 °F 59.0 °F 64% 29.75 in 10.0 mi WNW 5.8 mph - N/A   Clear
7:35 PM 69.8 °F 60.8 °F 73% 29.75 in 10.0 mi West 5.8 mph - N/A   Clear
7:59 PM 69.8 °F 60.8 °F 73% 29.76 in 10.0 mi West 4.6 mph - N/A   Scattered Clouds
8:16 PM 69.8 °F 60.8 °F 73% 29.77 in 10.0 mi WNW 8.1 mph - N/A   Scattered Clouds
8:35 PM 69.8 °F 59.0 °F 68% 29.78 in 10.0 mi West 10.4 mph - N/A   Mostly Cloudy
8:36 PM 69.8 °F 59.0 °F 68% 29.78 in 10.0 mi West 12.7 mph - N/A   Mostly Cloudy
8:55 PM 69.8 °F 57.2 °F 64% 29.79 in 10.0 mi WNW 17.3 mph - N/A   Mostly Cloudy
9:18 PM 66.2 °F 57.2 °F 73% 29.80 in 10.0 mi WNW 12.7 mph - N/A Rain Light Rain
9:36 PM 64.4 °F 59.0 °F 83% 29.80 in 10.0 mi West 6.9 mph - N/A Rain Light Rain
9:55 PM 62.6 °F 59.0 °F 88% 29.81 in 10.0 mi West 5.8 mph - N/A   Scattered Clouds
10:15 PM 62.6 °F 57.2 °F 82% 29.81 in 10.0 mi West 5.8 mph - N/A   Scattered Clouds
10:16 PM 62.6 °F 57.2 °F 82% 29.81 in 10.0 mi West 5.8 mph - N/A   Scattered Clouds
10:35 PM 62.6 °F 57.2 °F 82% 29.81 in 10.0 mi West 6.9 mph - N/A   Scattered Clouds
10:39 PM 62.6 °F 57.2 °F 82% 29.81 in 10.0 mi West 6.9 mph - N/A   Scattered Clouds
10:58 PM 62.6 °F 55.4 °F 77% 29.81 in 10.0 mi West 8.1 mph - N/A   Clear
11:15 PM 60.8 °F 55.4 °F 82% 29.81 in 10.0 mi West 5.8 mph - N/A   Clear
11:35 PM 60.8 °F 55.4 °F 82% 29.81 in 10.0 mi West 4.6 mph - N/A   Clear
11:36 PM 60.8 °F 55.4 °F 82% 29.81 in 10.0 mi West 4.6 mph - N/A   Clear
11:55 PM 59.0 °F 55.4 °F 88% 29.81 in 10.0 mi West 4.6 mph - N/A   Clear